Location: Newark
(46.7000°N, 60.6000°W)
Time: 21:18:50
(UTC+00:00)

Vanguard 1 Rocket - Pass Details

Date: 02 November 2020
Orbit: 656 x 4221 km, 34.3° (Epoch: 30 November)

Event Time Altitude Azimuth Distance (km) Brightness Sun altitude
Rises 13:14:35 0° 232° (SW) 4,210 10.8 19.6°
Reaches altitude 10° 13:18:47 10° 216° (SW) 2,747 10.1 20.0°
Maximum altitude 13:22:48 18° 174° (S) 1,860 10.3 20.4°
Drops below altitude 10° 13:26:03 10° 130° (SE) 2,150 11.2 20.8°
Sets 13:28:48 0° 109° (ESE) 2,976 10.9 21.0°
